Early, TX

6:48 AM CST on December 04, 2016 (GMT -0600)
Brownwood Regional

Weather History for KBWD - March, 2013

Change the Weather History Date:

Tuesday, March 26, 2013

  Actual Average (KABI) Record (KABI)
Temperature  
Mean Temperature 43 °F 59 °F  
Max Temperature 62 °F 72 °F 92 °F (1890)
Min Temperature 24 °F 47 °F 19 °F (1955)
Degree Days  
Heating Degree Days 22 7  
Month to date heating degree days 264  
Since 1 July heating degree days 2397  
Cooling Degree Days 0 1  
Month to date cooling degree days 21  
Year to date cooling degree days 26  
Moisture  
Dew Point 16 °F    
Average Humidity 37    
Maximum Humidity 74    
Minimum Humidity 13    
Precipitation  
Precipitation 0.00 in 0.05 in 2.30 in (1938)
Month to date precipitation 1.47  
Year to date precipitation 3.85  
Sea Level Pressure  
Sea Level Pressure 30.36 in    
Wind  
Wind Speed 3 mph (SSE)    
Max Wind Speed 13 mph    
Max Gust Speed 18 mph    
Visibility 10 miles    
Events      
T = Trace of Precipitation, MM = Missing Value Source: NWS Daily Summary

Daily Weather History Graph

Daily Weather History Graph

Search for Another Location

Airport or City:

Trip Planner

Search our weather history database for the weather conditions in past years. The results will help you decide how hot, cold, wet, or windy it might be!

Date:

Astronomy

Mar. 26, 2013 Rise Set
Actual Time 7:31 AM CDT 7:51 PM CDT
Civil Twilight 7:07 AM CDT 8:16 PM CDT
Nautical Twilight 6:38 AM CDT 8:44 PM CDT
Astronomical Twilight 6:09 AM CDT 9:13 PM CDT
Moon 7:28 PM CDT (3/26) 6:48 AM CDT (3/26)
Length of Visible Light 13h 08m
Length of Day
12h 20m
Waxing Gibbous, 99% of the Moon is Illuminated
Mar 26
Waxing Gibbous
Mar 27
Full
Apr 2
Last Quarter
Apr 10
New
Apr 18
First Quarter

Hourly Weather History & Observations

Time (CDT) Temp. Windchill Dew Point Humidity Pressure Visibility Wind Dir Wind Speed Gust Speed Precip Events Conditions
12:15 AM 39.2 °F 37.0 °F 14.0 °F 36% 30.40 in 10.0 mi NNE 3.5 mph - N/A   Partly Cloudy
12:35 AM 33.8 °F - 14.0 °F 44% 30.40 in 10.0 mi Calm Calm - N/A   Clear
12:55 AM 35.6 °F - 15.8 °F 44% 30.39 in 10.0 mi Calm Calm - N/A   Partly Cloudy
1:15 AM 32.0 °F 28.7 °F 15.8 °F 51% 30.39 in 10.0 mi NNE 3.5 mph - N/A   Partly Cloudy
1:35 AM 30.2 °F - 15.8 °F 55% 30.38 in 10.0 mi Calm Calm - N/A   Scattered Clouds
1:55 AM 28.4 °F - 15.8 °F 59% 30.38 in 10.0 mi Calm Calm - N/A   Partly Cloudy
2:15 AM 30.2 °F - 15.8 °F 55% 30.38 in 10.0 mi Calm Calm - N/A   Partly Cloudy
2:35 AM 28.4 °F - 15.8 °F 59% 30.39 in 10.0 mi Calm Calm - N/A   Clear
2:55 AM 28.4 °F 23.3 °F 15.8 °F 59% 30.39 in 10.0 mi South 4.6 mph - N/A   Partly Cloudy
3:15 AM 28.4 °F - 15.8 °F 59% 30.39 in 10.0 mi Calm Calm - N/A   Partly Cloudy
3:35 AM 30.2 °F 26.7 °F 15.8 °F 55% 30.39 in 10.0 mi South 3.5 mph - N/A   Partly Cloudy
3:55 AM 32.0 °F - 15.8 °F 51% 30.39 in 10.0 mi Calm Calm - N/A   Partly Cloudy
4:15 AM 28.4 °F - 15.8 °F 59% 30.39 in 10.0 mi Calm Calm - N/A   Partly Cloudy
4:35 AM 26.6 °F - 15.8 °F 64% 30.39 in 10.0 mi Calm Calm - N/A   Partly Cloudy
4:55 AM 24.8 °F - 15.8 °F 69% 30.39 in 10.0 mi Calm Calm - N/A   Partly Cloudy
5:15 AM 24.8 °F - 15.8 °F 69% 30.40 in 10.0 mi Calm Calm - N/A   Scattered Clouds
5:35 AM 26.6 °F - 15.8 °F 64% 30.40 in 10.0 mi Calm Calm - N/A   Mostly Cloudy
5:55 AM 24.8 °F - 15.8 °F 69% 30.41 in 10.0 mi Calm Calm - N/A   Mostly Cloudy
6:15 AM 24.8 °F - 15.8 °F 69% 30.42 in 10.0 mi Calm Calm - N/A   Mostly Cloudy
6:35 AM 24.8 °F - 15.8 °F 69% 30.42 in 10.0 mi Calm Calm - N/A   Mostly Cloudy
6:55 AM 24.8 °F - 15.8 °F 69% 30.43 in 10.0 mi Calm Calm - N/A   Mostly Cloudy
7:15 AM 26.6 °F - 15.8 °F 64% 30.43 in 10.0 mi Calm Calm - N/A   Partly Cloudy
7:35 AM 24.8 °F - 15.8 °F 69% 30.44 in 10.0 mi Calm Calm - N/A   Clear
7:55 AM 24.8 °F - 15.8 °F 69% 30.45 in 10.0 mi Calm Calm - N/A   Clear
8:15 AM 24.8 °F - 17.6 °F 74% 30.45 in 10.0 mi Calm Calm - N/A   Clear
8:35 AM 30.2 °F - 17.6 °F 60% 30.46 in 10.0 mi Calm Calm - N/A   Clear
8:55 AM 32.0 °F - 17.6 °F 55% 30.47 in 10.0 mi Calm Calm - N/A   Clear
9:15 AM 37.4 °F - 17.6 °F 45% 30.47 in 10.0 mi Calm Calm - N/A   Clear
9:35 AM 39.2 °F - 17.6 °F 42% 30.47 in 10.0 mi Calm Calm - N/A   Clear
9:55 AM 42.8 °F 38.6 °F 15.8 °F 34% 30.46 in 10.0 mi SE 6.9 mph - N/A   Clear
10:15 AM 46.4 °F 42.9 °F 14.0 °F 27% 30.47 in 10.0 mi SE 6.9 mph - N/A   Clear
10:35 AM 46.4 °F 42.9 °F 14.0 °F 27% 30.46 in 10.0 mi SE 6.9 mph - N/A   Clear
10:55 AM 48.2 °F - 14.0 °F 25% 30.46 in 10.0 mi South 5.8 mph - N/A   Clear
11:15 AM 50.0 °F - 14.0 °F 24% 30.46 in 10.0 mi SSW 6.9 mph - N/A   Clear
11:35 AM 50.0 °F - 14.0 °F 24% 30.45 in 10.0 mi SSE 9.2 mph - N/A   Clear
11:55 AM 51.8 °F - 14.0 °F 22% 30.44 in 10.0 mi SSW 4.6 mph - N/A   Clear
12:15 PM 53.6 °F - 15.8 °F 22% 30.43 in 10.0 mi SSW 4.6 mph - N/A   Clear
12:35 PM 53.6 °F - 15.8 °F 22% 30.42 in 10.0 mi ESE 4.6 mph - N/A   Clear
12:55 PM 55.4 °F - 17.6 °F 23% 30.41 in 10.0 mi South 9.2 mph - N/A   Clear
1:15 PM 55.4 °F - 15.8 °F 21% 30.40 in 10.0 mi Calm Calm - N/A   Clear
1:35 PM 55.4 °F - 15.8 °F 21% 30.39 in 10.0 mi Calm Calm - N/A   Clear
1:55 PM 57.2 °F - 15.8 °F 20% 30.38 in 10.0 mi SE 6.9 mph 16.1 mph N/A   Clear
2:15 PM 57.2 °F - 15.8 °F 20% 30.37 in 10.0 mi ESE 4.6 mph - N/A   Clear
2:35 PM 59.0 °F - 14.0 °F 17% 30.36 in 10.0 mi West 5.8 mph - N/A   Clear
2:55 PM 59.0 °F - 15.8 °F 19% 30.35 in 10.0 mi WSW 12.7 mph 17.3 mph N/A   Clear
3:15 PM 60.8 °F - 14.0 °F 16% 30.34 in 10.0 mi SSE 10.4 mph - N/A   Clear
3:35 PM 59.0 °F - 14.0 °F 17% 30.32 in 10.0 mi ESE 6.9 mph - N/A   Clear
3:55 PM 60.8 °F - 15.8 °F 17% 30.31 in 10.0 mi SW 10.4 mph - N/A   Clear
4:15 PM 62.6 °F - 15.8 °F 16% 30.30 in 10.0 mi South 8.1 mph 16.1 mph N/A   Clear
4:35 PM 62.6 °F - 12.2 °F 14% 30.29 in 10.0 mi SSW 6.9 mph - N/A   Clear
4:55 PM 62.6 °F - 12.2 °F 14% 30.28 in 10.0 mi South 6.9 mph - N/A   Clear
5:15 PM 62.6 °F - 12.2 °F 14% 30.27 in 10.0 mi SSE 11.5 mph 18.4 mph N/A   Clear
5:35 PM 62.6 °F - 10.4 °F 13% 30.26 in 10.0 mi SSW 10.4 mph 18.4 mph N/A   Clear
5:55 PM 62.6 °F - 14.0 °F 15% 30.25 in 10.0 mi South 8.1 mph - N/A   Clear
6:15 PM 62.6 °F - 12.2 °F 14% 30.25 in 10.0 mi SSE 12.7 mph 18.4 mph N/A   Clear
6:35 PM 62.6 °F - 14.0 °F 15% 30.25 in 10.0 mi SSE 9.2 mph 17.3 mph N/A   Clear
6:55 PM 60.8 °F - 14.0 °F 16% 30.24 in 10.0 mi SE 9.2 mph 17.3 mph N/A   Clear
7:15 PM 60.8 °F - 14.0 °F 16% 30.24 in 10.0 mi SSE 6.9 mph - N/A   Clear
7:35 PM 59.0 °F - 15.8 °F 19% 30.24 in 10.0 mi SE 9.2 mph - N/A   Clear
7:55 PM 57.2 °F - 15.8 °F 20% 30.24 in 10.0 mi SE 8.1 mph - N/A   Clear
8:15 PM 53.6 °F - 15.8 °F 22% 30.24 in 10.0 mi SE 8.1 mph - N/A   Clear
8:35 PM 53.6 °F - 15.8 °F 22% 30.24 in 10.0 mi ESE 6.9 mph - N/A   Partly Cloudy
8:55 PM 50.0 °F - 17.6 °F 28% 30.24 in 10.0 mi ESE 8.1 mph - N/A   Partly Cloudy
9:15 PM 50.0 °F - 17.6 °F 28% 30.24 in 10.0 mi SE 8.1 mph - N/A   Partly Cloudy
9:35 PM 50.0 °F - 15.8 °F 26% 30.24 in 10.0 mi SE 8.1 mph - N/A   Partly Cloudy
9:55 PM 48.2 °F - 15.8 °F 27% 30.25 in 10.0 mi SE 9.2 mph - N/A   Partly Cloudy
10:15 PM 50.0 °F - 17.6 °F 28% 30.25 in 10.0 mi SE 9.2 mph - N/A   Partly Cloudy
10:35 PM 50.0 °F - 17.6 °F 28% 30.25 in 10.0 mi SE 10.4 mph - N/A   Partly Cloudy
10:55 PM 50.0 °F - 17.6 °F 28% 30.26 in 10.0 mi SE 10.4 mph - N/A   Partly Cloudy
11:15 PM 48.2 °F - 19.4 °F 32% 30.26 in 10.0 mi SE 10.4 mph - N/A   Clear
11:35 PM 48.2 °F - 19.4 °F 32% 30.25 in 10.0 mi SE 10.4 mph - N/A   Clear
11:55 PM 48.2 °F - 19.4 °F 32% 30.26 in 10.0 mi SE 10.4 mph - N/A   Partly Cloudy